No;Time;Interval(mi);Indoor Humidity(%);Indoor Temperature(�C);Outdoor Humidity(%);Outdoor Temperature(�C);Absolute Pressure(Hpa);Wind(m/s);Gust(m/s);Direction;Relative Pressure(Hpa);Dewpoint(�C);Windchill(�C);Total Rainfall(mm)
1;2013-07-01 00:05:01;10;60;22.2;83;17.5;1015.5;0.0;0.0;W;1018.7;14.6;17.5;182.7;
2;2013-07-01 00:15:01;10;60;22.2;83;18.0;1015.3;0.0;0.3;W;1018.5;15.1;18.0;182.7;
3;2013-07-01 00:25:01;10;60;22.2;82;18.1;1015.4;0.0;0.3;W;1018.6;15.0;18.1;182.7;
4;2013-07-01 00:35:01;10;61;22.1;80;18.2;1015.3;0.0;0.0;NW;1018.5;14.7;18.2;182.7;
5;2013-07-01 00:45:01;10;60;22.1;80;18.2;1015.3;0.3;0.7;W;1018.5;14.7;18.2;182.7;
6;2013-07-01 00:55:01;10;60;22.1;80;18.2;1015.1;0.0;0.7;W;1018.3;14.7;18.2;182.7;
7;2013-07-01 01:05:01;10;60;22.1;80;18.1;1015.0;0.3;1.0;SW;1018.2;14.6;18.1;182.7;
8;2013-07-01 01:15:01;10;60;22.1;81;17.9;1015.0;0.0;0.3;NW;1018.2;14.6;17.9;182.7;
9;2013-07-01 01:25:01;10;60;22.1;81;17.7;1014.7;0.3;1.0;SW;1017.9;14.4;17.7;182.7;
10;2013-07-01 01:35:01;10;60;22.0;81;17.6;1014.8;0.3;0.7;SW;1018.0;14.3;17.6;182.7;
11;2013-07-01 01:45:01;10;60;22.0;81;17.4;1014.6;0.0;0.7;WNW;1017.8;14.1;17.4;182.7;
12;2013-07-01 01:55:01;10;60;22.0;81;17.2;1014.6;0.0;0.0;W;1017.8;13.9;17.2;182.7;
13;2013-07-01 02:05:01;10;60;22.0;81;17.1;1014.6;0.0;0.0;W;1017.8;13.8;17.1;182.7;
14;2013-07-01 02:15:01;10;60;22.0;84;16.7;1014.4;0.0;0.3;SW;1017.6;14.0;16.7;182.7;
15;2013-07-01 02:25:01;10;60;22.0;84;16.7;1014.4;0.0;0.3;S;1017.6;14.0;16.7;182.7;
16;2013-07-01 02:35:01;10;60;22.0;84;16.7;1014.4;0.3;1.0;SW;1017.6;14.0;16.7;182.7;
17;2013-07-01 02:45:01;10;60;22.0;84;16.6;1014.3;0.3;0.7;SW;1017.5;13.9;16.6;182.7;
18;2013-07-01 02:55:01;10;60;22.0;84;16.4;1014.2;0.0;0.3;NW;1017.4;13.7;16.4;182.7;
19;2013-07-01 03:05:01;10;61;21.9;84;16.4;1014.2;0.0;0.3;W;1017.4;13.7;16.4;182.7;
20;2013-07-01 03:15:01;10;61;21.9;85;16.3;1014.1;0.0;0.3;NW;1017.3;13.8;16.3;182.7;
21;2013-07-01 03:25:01;10;61;21.9;84;16.2;1014.3;0.3;1.0;WNW;1017.5;13.5;16.2;182.7;
22;2013-07-01 03:35:01;10;61;21.9;85;16.0;1014.2;0.0;0.3;W;1017.4;13.5;16.0;182.7;
23;2013-07-01 03:45:01;10;61;21.9;86;15.8;1014.2;0.0;0.3;SW;1017.4;13.5;15.8;182.7;
24;2013-07-01 03:55:01;10;61;21.9;86;15.7;1014.2;0.0;0.0;NW;1017.4;13.4;15.7;182.7;
25;2013-07-01 04:05:01;10;61;21.9;86;15.5;1014.3;0.0;0.0;NW;1017.5;13.2;15.5;182.7;
26;2013-07-01 04:15:01;10;61;21.9;88;15.3;1014.3;0.0;0.3;W;1017.5;13.3;15.3;182.7;
27;2013-07-01 04:25:01;10;61;21.9;88;15.5;1014.3;0.0;0.0;N;1017.5;13.5;15.5;182.7;
28;2013-07-01 04:35:01;10;61;21.9;88;15.7;1014.3;0.0;0.3;SW;1017.5;13.7;15.7;182.7;
29;2013-07-01 04:45:01;10;61;21.9;87;15.8;1014.4;0.0;0.0;SW;1017.6;13.6;15.8;182.7;
30;2013-07-01 04:55:01;10;61;21.9;86;16.0;1014.4;0.0;0.0;W;1017.6;13.7;16.0;182.7;
31;2013-07-01 05:05:01;10;61;21.9;86;16.1;1014.4;0.0;0.0;W;1017.6;13.8;16.1;182.7;
32;2013-07-01 05:15:01;10;62;21.9;86;16.4;1014.4;0.0;0.0;W;1017.6;14.0;16.4;182.7;
33;2013-07-01 05:25:01;10;62;21.8;86;16.7;1014.4;0.0;0.0;NW;1017.6;14.3;16.7;182.7;
34;2013-07-01 05:35:01;10;62;21.8;84;17.1;1014.4;0.0;0.0;W;1017.6;14.4;17.1;182.7;
35;2013-07-01 05:45:01;10;62;21.7;83;17.4;1014.3;0.0;0.0;W;1017.5;14.5;17.4;182.7;
36;2013-07-01 05:55:01;10;62;21.7;83;18.2;1014.4;0.0;0.0;N;1017.6;15.3;18.2;182.7;
37;2013-07-01 06:05:01;10;62;21.8;82;18.9;1014.4;0.0;0.0;NW;1017.6;15.8;18.9;182.7;
38;2013-07-01 06:15:01;10;62;21.8;75;20.3;1014.5;0.0;0.3;S;1017.7;15.7;20.3;182.7;
39;2013-07-01 06:25:01;10;62;21.9;73;20.8;1014.4;0.0;0.0;N;1017.6;15.8;20.8;182.7;
40;2013-07-01 06:35:01;10;63;21.9;71;21.3;1014.5;0.0;0.3;SE;1017.7;15.8;21.3;182.7;
41;2013-07-01 06:45:01;10;62;22.0;72;21.7;1014.4;0.0;0.3;N;1017.6;16.4;21.7;182.7;
42;2013-07-01 06:55:01;10;62;22.0;69;23.0;1014.6;0.0;0.0;E;1017.8;17.0;23.0;182.7;
43;2013-07-01 07:05:01;10;62;22.1;66;23.6;1014.4;0.0;0.7;E;1017.6;16.9;23.6;182.7;
44;2013-07-01 07:15:01;10;62;22.1;63;24.5;1014.5;0.0;0.0;S;1017.7;17.0;24.5;182.7;
45;2013-07-01 07:25:01;10;62;22.2;60;24.9;1014.6;0.0;0.7;NE;1017.8;16.6;24.9;182.7;
46;2013-07-01 07:35:01;10;62;22.2;59;24.6;1014.6;0.0;0.3;NW;1017.8;16.0;24.6;182.7;
47;2013-07-01 07:45:01;10;62;22.3;60;24.3;1014.6;0.3;0.7;N;1017.8;16.0;24.3;182.7;
48;2013-07-01 07:55:01;10;62;22.3;60;24.0;1014.6;0.3;0.7;NE;1017.8;15.7;24.0;182.7;
49;2013-07-01 08:05:01;10;62;22.3;61;23.9;1014.6;0.3;1.0;SE;1017.8;15.9;23.9;182.7;
50;2013-07-01 08:15:01;10;62;22.4;62;23.2;1014.7;0.3;1.4;SW;1017.9;15.5;23.2;182.7;
51;2013-07-01 08:25:01;10;62;22.4;63;22.6;1014.7;0.7;1.7;SW;1017.9;15.2;22.6;182.7;
52;2013-07-01 08:35:01;10;62;22.4;63;22.3;1014.6;0.3;0.7;S;1017.8;14.9;22.3;182.7;
53;2013-07-01 08:45:01;10;62;22.4;62;23.3;1014.7;0.3;0.7;SE;1017.9;15.6;23.3;182.7;
54;2013-07-01 08:55:01;10;62;22.4;57;24.2;1014.7;0.7;1.4;E;1017.9;15.1;24.2;182.7;
55;2013-07-01 09:05:01;10;62;22.5;58;24.6;1014.6;0.0;0.3;NE;1017.8;15.8;24.6;182.7;
56;2013-07-01 09:15:01;10;62;22.5;53;26.5;1014.7;0.0;0.3;W;1017.9;16.1;26.5;182.7;
57;2013-07-01 09:25:01;10;62;22.5;47;27.3;1014.6;0.3;0.7;E;1017.8;15.0;27.3;182.7;
58;2013-07-01 09:35:01;10;62;22.5;52;26.7;1014.5;0.0;0.7;S;1017.7;16.0;26.7;182.7;
59;2013-07-01 09:45:01;10;62;22.5;51;26.3;1014.6;0.3;1.0;NE;1017.8;15.3;26.3;182.7;
60;2013-07-01 09:55:01;10;62;22.5;52;26.1;1014.5;0.3;0.7;N;1017.7;15.5;26.1;182.7;
61;2013-07-01 10:05:01;10;62;22.6;52;26.0;1014.4;0.3;0.7;S;1017.6;15.4;26.0;182.7;
62;2013-07-01 10:15:01;10;62;22.6;49;27.8;1014.4;0.7;1.0;SW;1017.6;16.1;27.8;182.7;
63;2013-07-01 10:25:01;10;62;22.6;45;27.5;1014.3;0.3;0.7;NW;1017.5;14.5;27.5;182.7;
64;2013-07-01 10:35:01;10;62;22.6;50;26.6;1014.3;0.3;1.0;W;1017.5;15.3;26.6;182.7;
65;2013-07-01 10:45:01;10;62;22.7;48;27.6;1014.2;1.0;2.7;NE;1017.4;15.6;27.6;182.7;
66;2013-07-01 10:55:01;10;62;22.7;50;27.7;1014.1;0.0;0.3;NE;1017.3;16.3;27.7;182.7;
67;2013-07-01 11:05:01;10;62;22.8;47;29.9;1014.1;0.3;0.7;NW;1017.3;17.3;29.9;182.7;
68;2013-07-01 11:15:01;10;62;22.8;44;29.5;1013.9;0.3;0.7;SW;1017.1;15.9;29.5;182.7;
69;2013-07-01 11:25:01;10;62;22.8;47;28.9;1013.9;0.0;0.3;E;1017.1;16.4;28.9;182.7;
70;2013-07-01 11:35:01;10;62;22.8;46;28.7;1013.8;0.7;1.0;N;1017.0;15.9;28.7;182.7;
71;2013-07-01 11:45:01;10;62;22.9;49;26.8;1013.8;0.0;0.0;S;1017.0;15.2;26.8;182.7;
72;2013-07-01 11:55:01;10;62;22.9;52;26.2;1013.5;0.0;0.3;E;1016.7;15.6;26.2;182.7;
73;2013-07-01 12:05:01;10;62;22.9;52;26.2;1013.5;0.3;1.0;SW;1016.7;15.6;26.2;182.7;
74;2013-07-01 12:15:01;10;62;22.9;51;26.2;1013.4;0.3;0.7;NW;1016.6;15.3;26.2;182.7;
75;2013-07-01 12:25:01;10;61;23.0;53;26.3;1013.3;0.0;0.3;N;1016.5;15.9;26.3;182.7;
76;2013-07-01 12:35:01;10;61;23.0;52;26.7;1013.3;0.7;1.4;W;1016.5;16.0;26.7;182.7;
77;2013-07-01 12:45:01;10;61;23.0;50;27.5;1013.2;0.3;0.7;E;1016.4;16.1;27.5;182.7;
78;2013-07-01 12:55:01;10;61;23.0;48;28.5;1013.1;0.3;1.0;SW;1016.3;16.4;28.5;182.7;
79;2013-07-01 13:05:01;10;61;23.1;45;29.1;1012.9;0.3;0.7;N;1016.1;15.9;29.1;182.7;
80;2013-07-01 13:15:01;10;61;23.1;44;29.2;1013.0;0.0;0.7;S;1016.2;15.7;29.2;182.7;
81;2013-07-01 13:25:01;10;61;23.1;46;28.7;1012.9;0.7;1.7;SE;1016.1;15.9;28.7;182.7;
82;2013-07-01 13:35:01;10;61;23.1;46;29.2;1012.9;0.0;0.7;W;1016.1;16.4;29.2;182.7;
83;2013-07-01 13:45:01;10;61;23.2;46;28.6;1012.8;0.0;0.7;SW;1016.0;15.8;28.6;182.7;
84;2013-07-01 13:55:01;10;61;23.2;46;27.6;1012.8;0.3;0.7;SE;1016.0;14.9;27.6;182.7;
85;2013-07-01 14:05:01;10;61;23.2;46;27.4;1012.8;0.0;0.3;SE;1016.0;14.7;27.4;182.7;
86;2013-07-01 14:15:01;10;61;23.2;48;27.5;1012.6;0.0;0.7;NE;1015.8;15.5;27.5;182.7;
87;2013-07-01 14:25:01;10;61;23.2;47;27.7;1012.6;0.3;1.0;SE;1015.8;15.3;27.7;182.7;
88;2013-07-01 14:35:01;10;61;23.3;47;27.3;1012.7;0.3;1.4;SW;1015.9;15.0;27.3;182.7;
89;2013-07-01 14:45:01;10;61;23.3;47;27.3;1012.7;0.0;0.3;NW;1015.9;15.0;27.3;182.7;
90;2013-07-01 14:55:01;10;61;23.3;46;27.6;1012.7;0.0;0.0;NE;1015.9;14.9;27.6;182.7;
91;2013-07-01 15:05:01;10;61;23.3;47;27.3;1012.6;0.0;0.7;N;1015.8;15.0;27.3;182.7;
92;2013-07-01 15:15:01;10;61;23.3;47;27.7;1012.3;0.3;0.7;SW;1015.5;15.3;27.7;182.7;
93;2013-07-01 15:25:01;10;61;23.3;48;28.2;1012.5;0.3;1.0;NW;1015.7;16.1;28.2;182.7;
94;2013-07-01 15:35:01;10;61;23.3;46;28.8;1012.3;0.0;0.3;N;1015.5;16.0;28.8;182.7;
95;2013-07-01 15:45:01;10;61;23.3;45;29.3;1012.2;0.0;0.7;NW;1015.4;16.1;29.3;182.7;
96;2013-07-01 15:55:01;10;61;23.3;45;29.1;1012.2;0.0;0.7;N;1015.4;15.9;29.1;182.7;
97;2013-07-01 16:05:01;10;61;23.3;47;28.3;1012.4;0.3;0.7;S;1015.6;15.9;28.3;182.7;
98;2013-07-01 16:15:01;10;62;23.3;47;27.6;1012.3;0.3;1.0;NW;1015.5;15.3;27.6;182.7;
99;2013-07-01 16:25:01;10;62;23.5;47;27.6;1012.1;0.3;0.7;SE;1015.3;15.3;27.6;182.7;
100;2013-07-01 16:35:01;10;62;23.5;46;28.6;1012.1;0.0;0.7;NE;1015.3;15.8;28.6;182.7;
101;2013-07-01 16:45:01;10;61;23.5;46;27.9;1011.9;0.3;1.0;NW;1015.1;15.2;27.9;182.7;
102;2013-07-01 16:55:01;10;61;23.5;45;27.4;1011.9;0.0;0.3;N;1015.1;14.4;27.4;182.7;
103;2013-07-01 17:05:01;10;61;23.4;49;26.2;1012.0;0.0;0.7;NE;1015.2;14.6;26.2;182.7;
104;2013-07-01 17:15:01;10;62;23.4;53;25.4;1011.9;0.3;0.7;W;1015.1;15.1;25.4;182.7;
105;2013-07-01 17:25:01;10;62;23.4;55;24.8;1011.9;0.0;0.3;N;1015.1;15.1;24.8;182.7;
106;2013-07-01 17:35:01;10;63;23.5;56;24.4;1011.8;0.0;0.3;S;1015.0;15.0;24.4;183.6;
107;2013-07-01 17:45:01;10;64;23.4;56;24.3;1011.9;0.0;0.3;NE;1015.1;15.0;24.3;183.6;
108;2013-07-01 17:55:00;10;65;23.4;57;24.6;1012.0;0.0;0.7;S;1015.2;15.5;24.6;183.6;
109;2013-07-01 18:05:00;10;65;23.6;57;24.6;1011.9;0.0;0.3;SW;1015.1;15.5;24.6;183.6;
110;2013-07-01 18:15:01;10;64;23.4;57;24.1;1011.9;0.0;0.3;SE;1015.1;15.0;24.1;183.6;
111;2013-07-01 18:25:01;10;64;23.6;58;24.0;1012.0;0.0;0.0;NW;1015.2;15.2;24.0;183.6;
112;2013-07-01 18:35:01;10;64;23.4;58;24.0;1011.9;0.0;0.3;NW;1015.1;15.2;24.0;183.6;
113;2013-07-01 18:45:01;10;64;23.6;59;23.7;1012.0;0.0;0.3;N;1015.2;15.2;23.7;183.6;
114;2013-07-01 18:55:01;10;63;23.6;60;23.4;1012.0;0.0;0.3;NW;1015.2;15.2;23.4;183.6;
115;2013-07-01 19:05:01;10;63;23.6;61;23.1;1012.0;0.0;0.3;NE;1015.2;15.2;23.1;183.6;
116;2013-07-01 19:15:01;10;63;23.6;60;23.1;1012.0;0.0;0.3;W;1015.2;14.9;23.1;183.6;
117;2013-07-01 19:25:01;10;63;23.5;61;23.2;1012.0;0.0;0.3;W;1015.2;15.3;23.2;183.6;
118;2013-07-01 19:35:01;10;63;23.4;62;22.7;1012.0;0.0;0.3;E;1015.2;15.0;22.7;183.6;
119;2013-07-01 19:45:01;10;64;23.6;64;22.3;1012.0;0.3;0.7;S;1015.2;15.2;22.3;183.6;
120;2013-07-01 19:55:01;10;64;23.6;66;21.9;1012.0;0.0;0.0;S;1015.2;15.3;21.9;183.6;
121;2013-07-01 20:05:01;10;64;23.4;68;21.5;1012.2;0.0;0.3;S;1015.4;15.3;21.5;183.6;
122;2013-07-01 20:15:01;10;64;23.6;69;21.0;1012.4;0.0;0.0;S;1015.6;15.1;21.0;183.6;
123;2013-07-01 20:25:01;10;64;23.6;72;20.6;1012.4;0.0;0.3;S;1015.6;15.4;20.6;183.6;
124;2013-07-01 20:35:01;10;65;23.6;73;20.3;1012.5;0.0;0.0;SE;1015.7;15.3;20.3;183.6;
125;2013-07-01 20:45:01;10;64;23.4;74;20.2;1012.5;0.0;0.3;SW;1015.7;15.4;20.2;183.6;
126;2013-07-01 20:55:01;10;64;23.4;74;20.1;1012.5;0.0;0.0;S;1015.7;15.3;20.1;183.6;
127;2013-07-01 21:05:01;10;64;23.3;75;19.9;1012.5;0.0;0.0;S;1015.7;15.3;19.9;183.6;
128;2013-07-01 21:15:01;10;64;23.3;76;19.6;1012.6;0.0;0.0;S;1015.8;15.2;19.6;183.6;
129;2013-07-01 21:25:01;10;64;23.3;76;19.5;1012.5;0.0;0.0;SW;1015.7;15.2;19.5;183.6;
130;2013-07-01 21:35:01;10;64;23.2;77;19.3;1012.7;0.0;0.0;S;1015.9;15.2;19.3;183.6;
131;2013-07-01 21:45:01;10;64;23.4;78;19.0;1012.7;0.0;0.0;SW;1015.9;15.1;19.0;183.6;
132;2013-07-01 21:55:01;10;64;23.2;79;18.9;1012.7;0.0;0.3;SW;1015.9;15.2;18.9;183.6;
133;2013-07-01 22:05:01;10;64;23.2;79;18.9;1012.7;0.0;0.0;S;1015.9;15.2;18.9;183.6;
134;2013-07-01 22:15:01;10;64;23.3;77;19.0;1012.7;0.0;0.0;NE;1015.9;14.9;19.0;183.6;
135;2013-07-01 22:25:01;10;64;23.1;78;18.9;1012.7;0.0;0.0;S;1015.9;15.0;18.9;183.6;
136;2013-07-01 22:35:01;10;64;23.1;77;18.8;1012.7;0.0;0.0;SE;1015.9;14.7;18.8;183.6;
137;2013-07-01 22:45:01;10;64;23.2;77;18.7;1012.8;0.0;0.0;E;1016.0;14.6;18.7;183.6;
138;2013-07-01 22:55:01;10;64;23.0;77;18.9;1012.7;0.0;0.7;S;1015.9;14.8;18.9;184.2;
139;2013-07-01 23:05:01;10;64;23.0;76;18.8;1012.9;0.0;0.0;SW;1016.1;14.5;18.8;184.2;
140;2013-07-01 23:15:01;10;64;23.0;76;18.6;1012.8;0.0;0.3;S;1016.0;14.3;18.6;184.2;
141;2013-07-01 23:25:01;10;63;22.9;76;18.3;1012.8;0.0;0.0;W;1016.0;14.0;18.3;184.2;
142;2013-07-01 23:35:01;10;63;22.9;76;18.1;1012.7;0.0;0.0;SW;1015.9;13.8;18.1;184.2;
143;2013-07-01 23:45:01;10;63;22.9;77;17.9;1012.6;0.0;0.0;SW;1015.8;13.8;17.9;184.2;
144;2013-07-01 23:55:01;10;64;23.1;77;17.7;1012.6;0.0;0.7;NE;1015.8;13.6;17.7;184.2;
145;2013-07-02 00:05:01;10;63;22.8;78;17.6;1012.5;0.0;0.3;SE;1015.7;13.7;17.6;184.2;
146;2013-07-02 00:15:01;10;63;22.8;78;17.5;1012.4;0.3;0.7;W;1015.6;13.6;17.5;184.2;
147;2013-07-02 00:25:01;10;63;23.0;78;17.3;1012.3;0.0;0.3;S;1015.5;13.4;17.3;184.2;
148;2013-07-02 00:35:01;10;63;23.0;79;17.2;1012.3;0.0;0.0;SE;1015.5;13.5;17.2;184.2;
149;2013-07-02 00:45:01;10;63;22.8;80;17.1;1012.3;0.0;0.0;SW;1015.5;13.6;17.1;184.2;
150;2013-07-02 00:55:01;10;63;22.8;80;17.0;1012.2;0.0;0.7;SW;1015.4;13.5;17.0;184.2;
151;2013-07-02 01:05:01;10;63;23.0;82;16.9;1012.1;0.0;0.3;SE;1015.3;13.8;16.9;184.2;
152;2013-07-02 01:15:01;10;63;23.0;82;16.7;1012.1;0.0;0.0;S;1015.3;13.6;16.7;184.2;
153;2013-07-02 01:25:01;10;63;22.8;82;16.6;1012.0;0.0;0.0;N;1015.2;13.5;16.6;184.2;
154;2013-07-02 01:35:01;10;63;22.8;83;16.4;1012.0;0.0;0.0;S;1015.2;13.5;16.4;184.2;
155;2013-07-02 01:45:01;10;63;22.8;83;16.4;1011.9;0.0;0.0;SW;1015.1;13.5;16.4;184.2;
156;2013-07-02 01:55:01;10;63;22.7;84;16.3;1012.0;0.0;0.7;S;1015.2;13.6;16.3;184.2;
157;2013-07-02 02:05:01;10;63;22.7;84;16.2;1012.0;0.0;0.0;NW;1015.2;13.5;16.2;184.2;
158;2013-07-02 02:15:01;10;63;22.9;84;16.1;1011.9;0.0;0.0;N;1015.1;13.4;16.1;184.2;
159;2013-07-02 02:25:01;10;63;22.7;85;16.0;1011.8;0.0;0.0;W;1015.0;13.5;16.0;184.2;
160;2013-07-02 02:35:01;10;63;22.7;86;15.8;1011.7;0.0;0.0;NW;1014.9;13.5;15.8;184.2;
161;2013-07-02 02:45:01;10;63;22.7;86;15.6;1011.7;0.0;0.3;S;1014.9;13.3;15.6;184.2;
162;2013-07-02 02:55:01;10;62;22.7;87;15.6;1011.6;0.0;0.0;W;1014.8;13.4;15.6;184.2;
163;2013-07-02 03:05:01;10;62;22.7;88;15.6;1011.6;0.0;0.0;NW;1014.8;13.6;15.6;184.2;
164;2013-07-02 03:15:01;10;63;22.8;88;15.5;1011.7;0.0;0.0;NE;1014.9;13.5;15.5;184.2;
165;2013-07-02 03:25:01;10;62;22.6;88;15.5;1011.7;0.0;0.0;NE;1014.9;13.5;15.5;184.2;
166;2013-07-02 03:35:01;10;62;22.6;89;15.6;1011.5;0.0;0.0;NW;1014.7;13.8;15.6;184.2;
167;2013-07-02 03:45:01;10;62;22.6;89;15.6;1011.5;0.0;0.0;W;1014.7;13.8;15.6;184.2;
168;2013-07-02 03:55:01;10;62;22.6;89;15.6;1011.3;0.0;0.0;S;1014.5;13.8;15.6;184.2;
169;2013-07-02 04:05:01;10;62;22.8;89;15.6;1011.3;0.0;0.0;S;1014.5;13.8;15.6;184.2;
170;2013-07-02 04:15:01;10;62;22.6;89;15.4;1011.3;0.0;0.0;NW;1014.5;13.6;15.4;184.2;
171;2013-07-02 04:25:01;10;62;22.6;89;15.4;1011.4;0.0;0.0;NW;1014.6;13.6;15.4;184.2;
172;2013-07-02 04:35:01;10;62;22.6;90;15.3;1011.4;0.0;0.0;W;1014.6;13.7;15.3;184.2;
173;2013-07-02 04:45:01;10;62;22.6;90;15.4;1011.4;0.0;0.0;W;1014.6;13.8;15.4;184.2;
174;2013-07-02 04:55:01;10;62;22.6;91;15.7;1011.3;0.0;0.3;SW;1014.5;14.2;15.7;184.2;
175;2013-07-02 05:05:01;10;62;22.6;89;16.1;1011.5;0.3;0.7;S;1014.7;14.3;16.1;184.2;
176;2013-07-02 05:15:01;10;62;22.6;88;16.3;1011.6;0.0;0.3;SW;1014.8;14.3;16.3;184.2;
177;2013-07-02 05:25:01;10;62;22.6;87;16.5;1011.6;0.0;0.0;S;1014.8;14.3;16.5;184.2;
178;2013-07-02 05:35:01;10;62;22.6;87;16.7;1011.5;0.0;0.0;NW;1014.7;14.5;16.7;184.2;
179;2013-07-02 05:45:01;10;62;22.6;85;17.2;1011.5;0.0;0.0;SW;1014.7;14.7;17.2;184.2;
180;2013-07-02 05:55:01;10;63;22.6;84;17.8;1011.3;0.7;1.0;S;1014.5;15.1;17.8;184.2;
181;2013-07-02 06:05:01;10;63;22.7;82;18.0;1011.4;0.0;0.3;S;1014.6;14.9;18.0;184.2;
182;2013-07-02 06:15:01;10;62;22.7;79;18.7;1011.5;0.0;0.3;SW;1014.7;15.0;18.7;184.2;
183;2013-07-02 06:25:01;10;62;22.7;76;19.5;1011.5;0.0;0.0;NW;1014.7;15.2;19.5;184.2;
184;2013-07-02 06:35:01;10;62;22.6;73;20.2;1011.3;0.0;0.3;W;1014.5;15.2;20.2;184.2;
185;2013-07-02 06:45:01;10;62;22.6;69;20.5;1011.4;0.0;0.0;NE;1014.6;14.6;20.5;184.2;
186;2013-07-02 06:55:01;10;62;22.6;67;21.5;1011.4;0.3;0.7;NE;1014.6;15.1;21.5;184.2;
187;2013-07-02 07:05:01;10;63;22.7;64;21.4;1011.5;0.7;1.7;N;1014.7;14.3;21.4;184.2;
188;2013-07-02 07:15:01;10;63;22.7;64;21.3;1011.3;0.3;1.0;NW;1014.5;14.2;21.3;184.2;
189;2013-07-02 07:25:01;10;63;22.8;62;21.6;1011.3;0.3;1.0;W;1014.5;14.0;21.6;184.2;
190;2013-07-02 07:35:01;10;63;22.8;61;22.2;1011.3;0.3;0.7;N;1014.5;14.3;22.2;184.2;
191;2013-07-02 07:45:01;10;63;22.8;60;22.4;1011.4;0.0;0.3;N;1014.6;14.2;22.4;184.2;
192;2013-07-02 07:55:01;10;63;23.0;59;22.9;1011.2;0.0;0.7;SW;1014.4;14.5;22.9;184.2;
193;2013-07-02 08:05:01;10;63;23.1;57;23.2;1011.0;0.7;1.4;N;1014.2;14.2;23.2;184.2;
194;2013-07-02 08:15:01;10;63;23.1;57;23.2;1010.9;0.7;1.7;SE;1014.1;14.2;23.2;184.2;
195;2013-07-02 08:25:01;10;63;23.0;59;22.5;1010.8;0.3;1.0;W;1014.0;14.1;22.5;184.2;
196;2013-07-02 08:35:01;10;63;23.2;60;22.8;1010.8;0.7;1.0;NW;1014.0;14.6;22.8;184.2;
197;2013-07-02 08:45:01;10;62;23.1;59;23.0;1010.6;0.0;0.3;NW;1013.8;14.5;23.0;184.2;
198;2013-07-02 08:55:01;10;62;23.2;57;23.5;1010.6;0.0;0.3;NW;1013.8;14.5;23.5;184.2;
199;2013-07-02 09:05:01;10;62;23.2;57;23.2;1010.4;0.7;1.0;SW;1013.6;14.2;23.2;184.2;
200;2013-07-02 09:15:01;10;62;23.2;57;23.2;1010.3;0.0;0.3;W;1013.5;14.2;23.2;184.2;
201;2013-07-02 09:25:01;10;62;23.2;57;23.7;1010.3;0.7;1.4;SW;1013.5;14.7;23.7;184.2;
202;2013-07-02 09:35:01;10;62;23.2;55;24.6;1010.3;0.7;1.0;S;1013.5;14.9;24.6;184.2;
203;2013-07-02 09:45:01;10;62;23.2;53;25.6;1010.1;0.0;0.7;W;1013.3;15.3;25.6;184.2;
204;2013-07-02 09:55:01;10;62;23.2;51;26.1;1010.0;0.3;1.4;N;1013.2;15.2;26.1;184.2;
205;2013-07-02 10:05:01;10;62;23.2;51;26.3;1009.8;0.3;0.7;W;1013.0;15.3;26.3;184.2;
206;2013-07-02 10:15:01;10;62;23.2;51;26.2;1009.7;1.0;1.7;NW;1012.9;15.3;26.2;184.2;
207;2013-07-02 10:25:01;10;62;23.3;52;27.0;1009.7;0.7;1.4;E;1012.9;16.3;27.0;184.2;
208;2013-07-02 10:35:01;10;62;23.3;49;27.3;1009.6;0.3;0.7;NE;1012.8;15.6;27.3;184.2;
209;2013-07-02 10:45:01;10;62;23.3;49;27.5;1009.5;1.4;2.0;SE;1012.7;15.8;27.5;184.2;
210;2013-07-02 10:55:01;10;62;23.3;52;26.6;1009.4;0.7;1.4;S;1012.6;15.9;26.6;184.2;
211;2013-07-02 11:05:01;10;63;23.5;53;26.9;1009.4;0.7;1.0;S;1012.6;16.5;26.9;184.2;
212;2013-07-02 11:15:01;10;63;23.6;52;26.7;1009.3;0.7;2.0;N;1012.5;16.0;26.7;184.2;
213;2013-07-02 11:25:01;10;63;23.6;51;27.0;1009.2;0.3;1.0;ESE;1012.4;16.0;27.0;184.2;
214;2013-07-02 11:35:01;10;64;23.5;48;27.4;1009.1;0.3;1.0;SE;1012.3;15.4;27.4;184.2;
215;2013-07-02 11:45:01;10;64;23.6;52;26.9;1008.9;0.7;1.7;N;1012.1;16.2;26.9;184.2;
216;2013-07-02 11:55:01;10;64;23.8;52;26.1;1008.9;1.7;3.7;SW;1012.1;15.5;26.1;184.2;
217;2013-07-02 12:05:01;10;64;23.7;51;26.2;1008.7;0.7;1.4;E;1011.9;15.3;26.2;184.2;
218;2013-07-02 12:15:01;10;64;23.8;45;28.6;1008.4;1.0;2.7;S;1011.6;15.5;28.6;185.1;
219;2013-07-02 12:25:01;10;64;23.9;48;28.6;1008.3;0.0;0.3;S;1011.5;16.5;28.6;185.1;
220;2013-07-02 12:35:01;10;63;24.1;44;29.1;1008.2;1.7;3.1;NW;1011.4;15.6;29.1;185.1;
221;2013-07-02 12:45:01;10;63;24.1;46;28.3;1008.0;0.7;1.0;W;1011.2;15.6;28.3;185.1;
222;2013-07-02 12:55:01;10;63;24.2;44;29.1;1008.0;0.3;1.0;SW;1011.2;15.6;29.1;185.1;
223;2013-07-02 13:05:01;10;63;24.3;46;28.3;1007.8;0.7;1.7;W;1011.0;15.6;28.3;185.1;
224;2013-07-02 13:15:01;10;63;24.3;46;27.7;1007.8;0.3;0.7;N;1011.0;15.0;27.7;185.1;
225;2013-07-02 13:25:01;10;62;24.4;47;27.1;1007.7;0.3;0.7;NE;1010.9;14.8;27.1;185.1;
226;2013-07-02 13:35:01;10;62;24.4;47;28.4;1007.6;0.7;1.0;NW;1010.8;16.0;28.4;185.1;
227;2013-07-02 13:45:01;10;62;24.4;45;27.0;1007.5;1.7;2.7;N;1010.7;14.0;27.0;185.1;
228;2013-07-02 13:55:01;10;62;24.4;49;26.6;1007.3;1.0;2.0;W;1010.5;15.0;26.6;185.1;
229;2013-07-02 14:05:01;10;61;24.4;47;26.4;1007.3;0.7;1.7;NW;1010.5;14.2;26.4;185.1;
230;2013-07-02 14:15:01;10;61;24.4;49;26.1;1007.1;1.0;2.0;SW;1010.3;14.5;26.1;185.1;
231;2013-07-02 14:25:01;10;61;24.3;49;26.0;1006.9;0.3;1.4;NW;1010.1;14.4;26.0;185.1;
232;2013-07-02 14:35:01;10;61;24.3;52;25.8;1006.9;0.0;0.7;NW;1010.1;15.2;25.8;185.1;
233;2013-07-02 14:45:01;10;61;24.3;52;26.0;1006.9;1.0;2.0;SW;1010.1;15.4;26.0;185.1;
234;2013-07-02 14:55:01;10;61;24.3;52;26.1;1006.8;1.0;1.7;SW;1010.0;15.5;26.1;185.1;
235;2013-07-02 15:05:01;10;61;24.3;52;26.1;1006.6;0.3;1.4;S;1009.8;15.5;26.1;185.1;
236;2013-07-02 15:15:01;10;62;24.4;51;26.5;1006.6;0.3;1.4;NW;1009.8;15.5;26.5;185.1;
237;2013-07-02 15:25:01;10;62;24.4;49;26.2;1006.5;0.0;0.3;SW;1009.7;14.6;26.2;185.1;
238;2013-07-02 15:35:01;10;61;24.4;47;26.7;1006.4;1.0;2.7;SW;1009.6;14.4;26.7;185.1;
239;2013-07-02 15:45:01;10;61;24.5;46;27.0;1006.3;1.4;2.7;N;1009.5;14.4;27.0;185.1;
240;2013-07-02 15:55:01;10;61;24.5;46;26.9;1006.2;0.3;1.0;E;1009.4;14.3;26.9;185.1;
241;2013-07-02 16:05:01;10;60;24.5;44;27.0;1006.1;2.0;2.7;N;1009.3;13.7;27.0;185.1;
242;2013-07-02 16:15:01;10;60;24.6;45;27.1;1006.0;0.0;0.7;NW;1009.2;14.1;27.1;185.1;
243;2013-07-02 16:25:01;10;60;24.6;46;27.2;1006.0;0.7;1.4;S;1009.2;14.6;27.2;185.1;
244;2013-07-02 16:35:01;10;60;24.6;46;27.2;1005.9;0.7;1.0;SW;1009.1;14.6;27.2;185.1;
245;2013-07-02 16:45:01;10;60;24.6;49;26.4;1005.7;1.0;1.4;SW;1008.9;14.8;26.4;185.1;
246;2013-07-02 16:55:01;10;60;24.6;49;26.1;1005.6;1.4;2.0;SW;1008.8;14.5;26.1;185.1;
247;2013-07-02 17:05:01;10;60;24.6;49;25.9;1005.6;0.3;1.4;SSW;1008.8;14.4;25.9;185.1;
248;2013-07-02 17:15:01;10;60;24.6;49;26.0;1005.5;1.4;2.0;SW;1008.7;14.4;26.0;185.1;
249;2013-07-02 17:25:01;10;60;24.6;50;25.9;1005.6;0.7;1.4;NW;1008.8;14.7;25.9;185.1;
250;2013-07-02 17:35:01;10;60;24.6;51;25.7;1005.5;1.0;2.4;SW;1008.7;14.8;25.7;185.4;
251;2013-07-02 17:45:01;10;60;24.5;52;25.6;1005.4;0.7;1.7;NE;1008.6;15.0;25.6;185.4;
252;2013-07-02 17:55:01;10;60;24.5;53;25.5;1005.2;0.7;1.7;NW;1008.4;15.2;25.5;185.4;
253;2013-07-02 18:05:00;10;60;24.5;53;25.5;1005.2;0.0;0.3;SE;1008.4;15.2;25.5;186.0;
254;2013-07-02 18:15:00;10;60;24.5;53;25.2;1005.0;0.0;0.7;W;1008.2;14.9;25.2;186.0;
255;2013-07-02 18:25:00;10;61;24.5;54;25.2;1004.7;0.3;0.7;SW;1007.9;15.2;25.2;186.0;
256;2013-07-02 18:35:00;10;62;24.5;54;25.1;1004.7;0.3;1.4;SW;1007.9;15.1;25.1;186.0;
257;2013-07-02 18:45:01;10;62;24.5;55;24.9;1004.7;0.3;1.0;SW;1007.9;15.2;24.9;186.0;
258;2013-07-02 18:55:01;10;62;24.5;56;24.7;1004.7;0.3;0.7;NE;1007.9;15.3;24.7;186.0;
259;2013-07-02 19:05:01;10;62;24.5;57;24.5;1004.7;0.0;0.7;W;1007.9;15.4;24.5;186.0;
260;2013-07-02 19:15:01;10;62;24.5;58;24.3;1004.8;0.7;1.0;SW;1008.0;15.5;24.3;186.0;
261;2013-07-02 19:25:01;10;62;24.5;59;24.1;1004.6;0.0;1.0;N;1007.8;15.6;24.1;186.0;
262;2013-07-02 19:35:01;10;63;24.4;59;24.0;1004.6;1.0;1.7;N;1007.8;15.5;24.0;186.0;
263;2013-07-02 19:45:01;10;62;24.4;60;23.9;1004.6;1.0;1.7;W;1007.8;15.7;23.9;186.0;
264;2013-07-02 19:55:01;10;62;24.4;60;23.8;1004.6;0.7;1.4;N;1007.8;15.6;23.8;186.0;
265;2013-07-02 20:05:01;10;62;24.4;61;23.8;1004.6;0.7;1.4;SW;1007.8;15.8;23.8;186.0;
266;2013-07-02 20:15:01;10;62;24.4;62;23.6;1004.7;0.7;1.7;SW;1007.9;15.9;23.6;186.0;
267;2013-07-02 20:25:01;10;62;24.4;63;23.5;1004.6;1.0;1.7;NW;1007.8;16.0;23.5;186.0;
268;2013-07-02 20:35:01;10;62;24.4;65;23.4;1004.6;1.0;2.0;NW;1007.8;16.4;23.4;186.0;
269;2013-07-02 20:45:01;10;62;24.4;65;23.3;1004.5;0.7;1.0;SW;1007.7;16.3;23.3;186.0;
270;2013-07-02 20:55:01;10;63;24.4;66;23.2;1004.5;0.7;1.7;NW;1007.7;16.5;23.2;186.0;
271;2013-07-02 21:05:01;10;63;24.3;67;23.1;1004.5;0.0;0.7;W;1007.7;16.6;23.1;186.3;
272;2013-07-02 21:15:01;10;63;24.4;67;23.0;1004.6;0.3;1.0;SW;1007.8;16.5;23.0;186.3;
273;2013-07-02 21:25:01;10;63;24.4;67;22.9;1004.6;0.7;1.0;W;1007.8;16.4;22.9;186.3;
274;2013-07-02 21:35:01;10;63;24.4;68;22.7;1004.7;0.7;1.4;W;1007.9;16.5;22.7;186.3;
275;2013-07-02 21:45:01;10;63;24.4;69;22.6;1004.8;0.7;1.4;SW;1008.0;16.6;22.6;186.3;
276;2013-07-02 21:55:01;10;63;24.3;72;22.2;1004.7;0.3;1.4;NE;1007.9;16.9;22.2;186.3;
277;2013-07-02 22:05:01;10;63;24.3;71;22.1;1004.8;0.7;1.0;W;1008.0;16.6;22.1;186.3;
278;2013-07-02 22:15:01;10;63;24.3;71;21.8;1004.9;0.3;1.0;SW;1008.1;16.3;21.8;186.3;
279;2013-07-02 22:25:01;10;63;24.3;71;21.7;1004.9;0.3;1.4;S;1008.1;16.2;21.7;186.3;
280;2013-07-02 22:35:01;10;63;24.3;72;21.5;1005.0;0.7;1.4;E;1008.2;16.2;21.5;186.3;
281;2013-07-02 22:45:01;10;63;24.2;75;20.5;1005.1;0.7;1.4;SE;1008.3;15.9;20.5;186.3;
282;2013-07-02 22:55:01;10;63;24.2;77;19.9;1005.2;0.7;1.4;SE;1008.4;15.7;19.9;186.3;